User: anonymous
Location: Pine Mountain Observatory
(43.7910°N, 120.9377°W)
Time: 10:57:49
(UTC-07:00)
Language:

APEX - Orbit

View from above orbital plane
View from above orbital plane
View from above satellite
View from above satellite

Ground track
Ground track

The orbit data is extracted from the following two-line orbital elements,

1 23191U 94046A   14293.34972964  .00025026  00000-0  10117-2 0   349
2 23191 069.9177 268.9806 0725908 132.8049 020.4186 14.07827387978118
Epoch (UTC): 20 October 2014 08:23:36
Eccentricity: 0.0725908
inclination: 69.9177°
perigee height: 341 km
apogee height: 1393 km
right ascension of ascending node: 268.9806°
argument of perigee: 132.8049°
revolutions per day: 14.07827387
mean anomaly at epoch: 20.4186°
orbit number at epoch: 97811

The dashed part of the orbit path shows where the satellite is in the earth's shadow,  

DLR